Time,TemperatureF,DewpointF,PressureIn,WindDirection,WindDirectionDegrees,WindSpeedMPH,WindSpeedGustMPH,Humidity,HourlyPrecipIn,Conditions,Clouds,dailyrainin,SoftwareType,DateUTC
2013-01-31 00:03:00,42.6,40.0,30.27,NNE,33,0.0,0.0,89,0.00,,,0.00,weatherlink.com 1.10,2013-01-31 08:03:00,
2013-01-31 00:18:00,42.4,39.0,30.27,NNE,33,0.0,1.0,89,0.00,,,0.00,weatherlink.com 1.10,2013-01-31 08:18:00,
2013-01-31 00:33:00,42.3,40.0,30.27,NNE,33,0.0,0.0,90,0.00,,,0.00,weatherlink.com 1.10,2013-01-31 08:33:00,
2013-01-31 00:48:00,42.0,39.0,30.27,NNE,33,0.0,0.0,89,0.00,,,0.00,weatherlink.com 1.10,2013-01-31 08:48:00,
2013-01-31 01:04:00,41.8,39.0,30.27,NNE,33,0.0,0.0,90,0.00,,,0.00,weatherlink.com 1.10,2013-01-31 09:04:00,
2013-01-31 01:19:00,41.7,39.0,30.27,NNE,33,0.0,1.0,90,0.00,,,0.00,weatherlink.com 1.10,2013-01-31 09:19:00,
2013-01-31 01:34:00,41.4,39.0,30.27,NNE,33,0.0,1.0,90,0.00,,,0.00,weatherlink.com 1.10,2013-01-31 09:34:00,
2013-01-31 01:49:00,41.2,39.0,30.27,NNE,33,0.0,0.0,91,0.00,,,0.00,weatherlink.com 1.10,2013-01-31 09:49:00,
2013-01-31 02:04:00,40.9,39.0,30.27,NNE,33,0.0,0.0,91,0.00,,,0.00,weatherlink.com 1.10,2013-01-31 10:04:00,
2013-01-31 02:19:00,40.8,39.0,30.26,NNE,33,0.0,0.0,92,0.00,,,0.00,weatherlink.com 1.10,2013-01-31 10:19:00,
2013-01-31 02:34:00,40.9,39.0,30.26,NNE,33,0.0,0.0,92,0.00,,,0.00,weatherlink.com 1.10,2013-01-31 10:34:00,
2013-01-31 02:49:00,40.7,39.0,30.26,NNE,33,0.0,0.0,92,0.00,,,0.00,weatherlink.com 1.10,2013-01-31 10:49:00,
2013-01-31 03:04:00,40.4,38.0,30.25,NNE,33,0.0,0.0,92,0.00,,,0.00,weatherlink.com 1.10,2013-01-31 11:04:00,
2013-01-31 03:19:00,40.3,38.0,30.25,NNE,33,0.0,1.0,92,0.00,,,0.00,weatherlink.com 1.10,2013-01-31 11:19:00,
2013-01-31 03:34:00,40.1,38.0,30.25,NNE,33,0.0,0.0,92,0.00,,,0.00,weatherlink.com 1.10,2013-01-31 11:34:00,
2013-01-31 03:49:00,40.3,38.0,30.25,NNE,33,0.0,1.0,92,0.00,,,0.00,weatherlink.com 1.10,2013-01-31 11:49:00,
2013-01-31 04:04:00,40.0,38.0,30.25,NNE,33,0.0,0.0,92,0.00,,,0.00,weatherlink.com 1.10,2013-01-31 12:04:00,
2013-01-31 04:19:00,39.6,38.0,30.25,NNE,33,0.0,0.0,92,0.00,,,0.00,weatherlink.com 1.10,2013-01-31 12:19:00,
2013-01-31 04:34:00,39.1,37.0,30.26,NNE,33,0.0,0.0,92,0.00,,,0.00,weatherlink.com 1.10,2013-01-31 12:34:00,
2013-01-31 04:49:00,39.0,37.0,30.26,NNE,33,0.0,0.0,93,0.00,,,0.00,weatherlink.com 1.10,2013-01-31 12:49:00,
2013-01-31 05:04:00,39.0,37.0,30.26,NNE,33,0.0,0.0,93,0.00,,,0.00,weatherlink.com 1.10,2013-01-31 13:04:00,
2013-01-31 05:19:00,39.2,38.0,30.25,NNE,33,0.0,1.0,94,0.00,,,0.00,weatherlink.com 1.10,2013-01-31 13:19:00,
2013-01-31 05:34:00,39.2,37.0,30.25,NNE,33,0.0,0.0,93,0.00,,,0.00,weatherlink.com 1.10,2013-01-31 13:34:00,
2013-01-31 05:49:00,39.0,37.0,30.25,NNE,33,0.0,0.0,93,0.00,,,0.00,weatherlink.com 1.10,2013-01-31 13:49:00,
2013-01-31 06:04:00,38.9,37.0,30.25,NNE,33,0.0,0.0,93,0.00,,,0.00,weatherlink.com 1.10,2013-01-31 14:04:00,
2013-01-31 06:19:00,39.1,38.0,30.25,NNE,33,0.0,0.0,94,0.00,,,0.00,weatherlink.com 1.10,2013-01-31 14:19:00,
2013-01-31 06:34:00,39.0,38.0,30.25,NNE,33,0.0,0.0,94,0.00,,,0.00,weatherlink.com 1.10,2013-01-31 14:34:00,
2013-01-31 06:49:00,38.9,37.0,30.26,NNE,33,0.0,1.0,94,0.00,,,0.00,weatherlink.com 1.10,2013-01-31 14:49:00,
2013-01-31 07:04:00,38.8,37.0,30.26,NNE,33,0.0,1.0,94,0.00,,,0.00,weatherlink.com 1.10,2013-01-31 15:04:00,
2013-01-31 07:19:00,38.4,37.0,30.27,NNE,33,0.0,1.0,94,0.00,,,0.00,weatherlink.com 1.10,2013-01-31 15:19:00,
2013-01-31 07:49:00,39.2,38.0,30.27,NNE,33,0.0,0.0,94,0.00,,,0.00,weatherlink.com 1.10,2013-01-31 15:49:00,
2013-01-31 08:04:00,41.1,40.0,30.27,NNE,33,0.0,0.0,95,0.00,,,0.00,weatherlink.com 1.10,2013-01-31 16:04:00,
2013-01-31 08:19:00,43.5,42.0,30.28,NNE,33,0.0,0.0,95,0.00,,,0.00,weatherlink.com 1.10,2013-01-31 16:19:00,
2013-01-31 08:34:00,45.8,44.0,30.28,NNE,33,0.0,1.0,92,0.00,,,0.00,weatherlink.com 1.10,2013-01-31 16:34:00,
2013-01-31 08:49:00,48.0,44.0,30.28,NE,36,2.0,2.0,86,0.00,,,0.00,weatherlink.com 1.10,2013-01-31 16:49:00,
2013-01-31 09:04:00,50.0,46.0,30.28,ENE,76,1.0,2.0,85,0.00,,,0.00,weatherlink.com 1.10,2013-01-31 17:04:00,
2013-01-31 09:19:00,51.9,46.0,30.28,ENE,76,1.0,2.0,81,0.00,,,0.00,weatherlink.com 1.10,2013-01-31 17:19:00,
2013-01-31 09:34:00,52.8,47.0,30.28,ENE,63,1.0,3.0,80,0.00,,,0.00,weatherlink.com 1.10,2013-01-31 17:34:00,
2013-01-31 09:50:00,53.9,47.0,30.28,ENE,63,0.0,2.0,76,0.00,,,0.00,weatherlink.com 1.10,2013-01-31 17:50:00,
2013-01-31 10:05:00,55.2,47.0,30.29,ENE,59,1.0,3.0,74,0.00,,,0.00,weatherlink.com 1.10,2013-01-31 18:05:00,
2013-01-31 10:20:00,56.0,46.0,30.29,ENE,57,2.0,3.0,70,0.00,,,0.00,weatherlink.com 1.10,2013-01-31 18:20:00,
2013-01-31 10:35:00,56.8,46.0,30.28,ENE,61,0.0,4.0,68,0.00,,,0.00,weatherlink.com 1.10,2013-01-31 18:35:00,
2013-01-31 10:50:00,56.9,46.0,30.28,NE,39,0.0,4.0,66,0.00,,,0.00,weatherlink.com 1.10,2013-01-31 18:50:00,
2013-01-31 11:05:00,57.1,46.0,30.27,East,82,0.0,5.0,67,0.00,,,0.00,weatherlink.com 1.10,2013-01-31 19:05:00,
2013-01-31 11:20:00,58.1,46.0,30.26,East,92,2.0,4.0,65,0.00,,,0.00,weatherlink.com 1.10,2013-01-31 19:20:00,
2013-01-31 11:35:00,59.5,45.0,30.26,SSE,158,2.0,5.0,59,0.00,,,0.00,weatherlink.com 1.10,2013-01-31 19:35:00,
2013-01-31 11:50:00,60.7,45.0,30.25,SE,146,4.0,4.0,56,0.00,,,0.00,weatherlink.com 1.10,2013-01-31 19:50:00,
2013-01-31 12:05:00,61.4,44.0,30.25,SE,134,0.0,5.0,53,0.00,,,0.00,weatherlink.com 1.10,2013-01-31 20:05:00,
2013-01-31 12:20:00,62.4,45.0,30.24,ESE,117,2.0,3.0,53,0.00,,,0.00,weatherlink.com 1.10,2013-01-31 20:20:00,
2013-01-31 12:35:00,62.5,45.0,30.23,NE,55,2.0,5.0,54,0.00,,,0.00,weatherlink.com 1.10,2013-01-31 20:35:00,
2013-01-31 12:50:00,62.7,45.0,30.22,ENE,59,4.0,4.0,52,0.00,,,0.00,weatherlink.com 1.10,2013-01-31 20:50:00,
2013-01-31 13:05:00,62.8,44.0,30.21,East,86,3.0,7.0,51,0.00,,,0.00,weatherlink.com 1.10,2013-01-31 21:05:00,
2013-01-31 13:20:00,62.7,44.0,30.21,SE,126,5.0,7.0,51,0.00,,,0.00,weatherlink.com 1.10,2013-01-31 21:20:00,
2013-01-31 13:35:00,62.9,43.0,30.20,East,88,3.0,8.0,49,0.00,,,0.00,weatherlink.com 1.10,2013-01-31 21:35:00,
2013-01-31 13:50:00,63.0,43.0,30.19,NE,35,3.0,7.0,49,0.00,,,0.00,weatherlink.com 1.10,2013-01-31 21:50:00,
2013-01-31 14:05:00,63.5,44.0,30.19,ENE,73,4.0,6.0,49,0.00,,,0.00,weatherlink.com 1.10,2013-01-31 22:05:00,
2013-01-31 14:20:00,63.5,44.0,30.19,NNE,33,2.0,6.0,50,0.00,,,0.00,weatherlink.com 1.10,2013-01-31 22:20:00,
2013-01-31 14:35:00,64.1,44.0,30.18,ENE,64,2.0,4.0,49,0.00,,,0.00,weatherlink.com 1.10,2013-01-31 22:35:00,
2013-01-31 14:50:00,64.7,44.0,30.18,North,360,0.0,3.0,48,0.00,,,0.00,weatherlink.com 1.10,2013-01-31 22:50:00,
2013-01-31 15:05:00,65.2,44.0,30.18,NNE,19,2.0,3.0,46,0.00,,,0.00,weatherlink.com 1.10,2013-01-31 23:05:00,
2013-01-31 15:20:00,64.9,42.0,30.18,NNE,24,1.0,4.0,44,0.00,,,0.00,weatherlink.com 1.10,2013-01-31 23:20:00,
2013-01-31 15:35:00,65.2,43.0,30.18,WNW,295,3.0,4.0,45,0.00,,,0.00,weatherlink.com 1.10,2013-01-31 23:35:00,
2013-01-31 15:50:00,65.4,44.0,30.18,NE,36,3.0,4.0,46,0.00,,,0.00,weatherlink.com 1.10,2013-01-31 23:50:00,
2013-01-31 16:06:00,64.4,46.0,30.17,NE,34,2.0,5.0,51,0.00,,,0.00,weatherlink.com 1.10,2013-02-01 00:06:00,
2013-01-31 16:21:00,63.9,46.0,30.17,NNW,341,3.0,5.0,52,0.00,,,0.00,weatherlink.com 1.10,2013-02-01 00:21:00,
2013-01-31 16:36:00,64.2,46.0,30.17,North,9,0.0,5.0,52,0.00,,,0.00,weatherlink.com 1.10,2013-02-01 00:36:00,
2013-01-31 16:51:00,63.3,45.0,30.17,North,11,3.0,5.0,51,0.00,,,0.00,weatherlink.com 1.10,2013-02-01 00:51:00,
2013-01-31 17:06:00,62.5,45.0,30.17,NNE,20,0.0,2.0,53,0.00,,,0.00,weatherlink.com 1.10,2013-02-01 01:06:00,
2013-01-31 17:21:00,60.9,46.0,30.16,NNE,18,0.0,1.0,58,0.00,,,0.00,weatherlink.com 1.10,2013-02-01 01:21:00,
2013-01-31 17:36:00,58.9,46.0,30.16,NNE,18,0.0,2.0,63,0.00,,,0.00,weatherlink.com 1.10,2013-02-01 01:36:00,
2013-01-31 17:51:00,57.3,47.0,30.16,NNE,18,0.0,1.0,68,0.00,,,0.00,weatherlink.com 1.10,2013-02-01 01:51:00,
2013-01-31 18:06:00,56.0,46.0,30.17,NNE,18,0.0,1.0,68,0.00,,,0.00,weatherlink.com 1.10,2013-02-01 02:06:00,
2013-01-31 18:21:00,54.8,46.0,30.17,NNE,18,0.0,0.0,71,0.00,,,0.00,weatherlink.com 1.10,2013-02-01 02:21:00,
2013-01-31 18:36:00,53.8,45.0,30.17,NNE,18,0.0,0.0,73,0.00,,,0.00,weatherlink.com 1.10,2013-02-01 02:36:00,
2013-01-31 18:51:00,52.7,45.0,30.17,NNE,18,0.0,0.0,76,0.00,,,0.00,weatherlink.com 1.10,2013-02-01 02:51:00,
2013-01-31 19:06:00,51.9,45.0,30.17,NNE,18,0.0,0.0,77,0.00,,,0.00,weatherlink.com 1.10,2013-02-01 03:06:00,
2013-01-31 19:21:00,51.1,45.0,30.17,NNE,18,0.0,0.0,79,0.00,,,0.00,weatherlink.com 1.10,2013-02-01 03:21:00,
2013-01-31 19:36:00,50.2,45.0,30.17,NNE,18,0.0,0.0,81,0.00,,,0.00,weatherlink.com 1.10,2013-02-01 03:36:00,
2013-01-31 19:51:00,49.6,44.0,30.17,NNE,18,0.0,1.0,82,0.00,,,0.00,weatherlink.com 1.10,2013-02-01 03:51:00,
2013-01-31 20:06:00,48.9,44.0,30.17,NNE,18,0.0,0.0,83,0.00,,,0.00,weatherlink.com 1.10,2013-02-01 04:06:00,
2013-01-31 20:21:00,48.3,44.0,30.17,NNE,18,0.0,0.0,84,0.00,,,0.00,weatherlink.com 1.10,2013-02-01 04:21:00,
2013-01-31 20:36:00,47.6,43.0,30.17,NNE,18,0.0,0.0,85,0.00,,,0.00,weatherlink.com 1.10,2013-02-01 04:36:00,
2013-01-31 20:51:00,47.4,43.0,30.17,NNE,18,0.0,0.0,86,0.00,,,0.00,weatherlink.com 1.10,2013-02-01 04:51:00,
2013-01-31 21:06:00,47.0,43.0,30.17,NNE,18,0.0,0.0,86,0.00,,,0.00,weatherlink.com 1.10,2013-02-01 05:06:00,
2013-01-31 21:21:00,46.6,43.0,30.17,NNE,18,0.0,0.0,86,0.00,,,0.00,weatherlink.com 1.10,2013-02-01 05:21:00,
2013-01-31 21:36:00,46.1,43.0,30.17,NNE,18,0.0,0.0,87,0.00,,,0.00,weatherlink.com 1.10,2013-02-01 05:36:00,
2013-01-31 21:51:00,45.6,42.0,30.17,NNE,18,0.0,0.0,88,0.00,,,0.00,weatherlink.com 1.10,2013-02-01 05:51:00,
2013-01-31 22:06:00,45.3,42.0,30.17,NNE,18,0.0,0.0,88,0.00,,,0.00,weatherlink.com 1.10,2013-02-01 06:06:00,
2013-01-31 22:21:00,45.0,42.0,30.17,NNE,18,0.0,0.0,89,0.00,,,0.00,weatherlink.com 1.10,2013-02-01 06:21:00,
2013-01-31 22:36:00,44.7,42.0,30.18,NNE,18,0.0,0.0,90,0.00,,,0.00,weatherlink.com 1.10,2013-02-01 06:36:00,
2013-01-31 22:51:00,44.4,42.0,30.17,NNE,18,0.0,0.0,90,0.00,,,0.00,weatherlink.com 1.10,2013-02-01 06:51:00,
2013-01-31 23:06:00,44.0,41.0,30.17,NNE,18,0.0,0.0,90,0.00,,,0.00,weatherlink.com 1.10,2013-02-01 07:06:00,
2013-01-31 23:21:00,43.8,41.0,30.18,NNE,18,0.0,0.0,91,0.00,,,0.00,weatherlink.com 1.10,2013-02-01 07:21:00,
2013-01-31 23:36:00,43.6,41.0,30.17,NNE,18,0.0,0.0,90,0.00,,,0.00,weatherlink.com 1.10,2013-02-01 07:36:00,
2013-01-31 23:51:00,43.3,41.0,30.17,NNE,18,0.0,1.0,92,0.00,,,0.00,weatherlink.com 1.10,2013-02-01 07:51:00,